Year,Month,Day,Hour,Minute,Value (Times are PST for temperature in C)
2013,09,26,00,00,11.10
2013,09,26,00,01,11.10
2013,09,26,00,02,11.10
2013,09,26,00,03,11.20
2013,09,26,00,04,11.20
2013,09,26,00,05,11.20
2013,09,26,00,06,11.30
2013,09,26,00,07,11.30
2013,09,26,00,08,11.30
2013,09,26,00,09,11.30
2013,09,26,00,10,11.30
2013,09,26,00,11,11.30
2013,09,26,00,12,11.30
2013,09,26,00,13,11.30
2013,09,26,00,14,11.30
2013,09,26,00,15,11.20
2013,09,26,00,16,11.20
2013,09,26,00,17,11.20
2013,09,26,00,18,11.10
2013,09,26,00,19,11.10
2013,09,26,00,20,11.10
2013,09,26,00,21,11.10
2013,09,26,00,22,11.10
2013,09,26,00,23,11.10
2013,09,26,00,24,11.10
2013,09,26,00,25,11.20
2013,09,26,00,26,11.20
2013,09,26,00,27,11.20
2013,09,26,00,28,11.20
2013,09,26,00,29,11.20
2013,09,26,00,30,11.20
2013,09,26,00,31,11.20
2013,09,26,00,32,11.20
2013,09,26,00,33,11.20
2013,09,26,00,34,11.20
2013,09,26,00,35,11.20
2013,09,26,00,36,11.20
2013,09,26,00,37,11.20
2013,09,26,00,38,11.30
2013,09,26,00,39,11.30
2013,09,26,00,40,11.30
2013,09,26,00,41,11.30
2013,09,26,00,42,11.30
2013,09,26,00,43,11.20
2013,09,26,00,44,11.20
2013,09,26,00,45,11.10
2013,09,26,00,46,11.00
2013,09,26,00,47,11.00
2013,09,26,00,48,10.90
2013,09,26,00,49,10.80
2013,09,26,00,50,10.70
2013,09,26,00,51,10.60
2013,09,26,00,52,10.50
2013,09,26,00,53,10.40
2013,09,26,00,54,10.30
2013,09,26,00,55,10.30
2013,09,26,00,56,10.20
2013,09,26,00,57,10.10
2013,09,26,00,58,10.10
2013,09,26,00,59,10.00
2013,09,26,01,00,9.90
2013,09,26,01,01,9.90
2013,09,26,01,02,9.90
2013,09,26,01,03,9.80
2013,09,26,01,04,9.80
2013,09,26,01,05,9.70
2013,09,26,01,06,9.70
2013,09,26,01,07,9.60
2013,09,26,01,08,9.60
2013,09,26,01,09,9.50
2013,09,26,01,10,9.40
2013,09,26,01,11,9.40
2013,09,26,01,12,9.40
2013,09,26,01,13,9.40
2013,09,26,01,14,9.30
2013,09,26,01,15,9.30
2013,09,26,01,16,9.30
2013,09,26,01,17,9.30
2013,09,26,01,18,9.30
2013,09,26,01,19,9.30
2013,09,26,01,20,9.30
2013,09,26,01,21,9.30
2013,09,26,01,22,9.30
2013,09,26,01,23,9.30
2013,09,26,01,24,9.30
2013,09,26,01,25,9.30
2013,09,26,01,26,9.30
2013,09,26,01,27,9.30
2013,09,26,01,28,9.30
2013,09,26,01,29,9.30
2013,09,26,01,30,9.30
2013,09,26,01,31,9.40
2013,09,26,01,32,9.40
2013,09,26,01,33,9.40
2013,09,26,01,34,9.40
2013,09,26,01,35,9.50
2013,09,26,01,36,9.50
2013,09,26,01,37,9.50
2013,09,26,01,38,9.50
2013,09,26,01,39,9.40
2013,09,26,01,40,9.40
2013,09,26,01,41,9.30
2013,09,26,01,42,9.20
2013,09,26,01,43,9.20
2013,09,26,01,44,9.10
2013,09,26,01,45,9.10
2013,09,26,01,46,9.00
2013,09,26,01,47,8.90
2013,09,26,01,48,8.90
2013,09,26,01,49,8.80
2013,09,26,01,50,8.70
2013,09,26,01,51,8.60
2013,09,26,01,52,8.60
2013,09,26,01,53,8.50
2013,09,26,01,54,8.50
2013,09,26,01,55,8.50
2013,09,26,01,56,8.50
2013,09,26,01,57,8.60
2013,09,26,01,58,8.70
2013,09,26,01,59,8.80
2013,09,26,02,00,8.90
2013,09,26,02,01,9.10
2013,09,26,02,02,9.20
2013,09,26,02,03,9.30
2013,09,26,02,04,9.40
2013,09,26,02,05,9.50
2013,09,26,02,06,9.50
2013,09,26,02,07,9.60
2013,09,26,02,08,9.60
2013,09,26,02,09,9.60
2013,09,26,02,10,9.70
2013,09,26,02,11,9.70
2013,09,26,02,12,9.70
2013,09,26,02,13,9.60
2013,09,26,02,14,9.60
2013,09,26,02,15,9.60
2013,09,26,02,16,9.60
2013,09,26,02,17,9.60
2013,09,26,02,18,9.60
2013,09,26,02,19,9.60
2013,09,26,02,20,9.60
2013,09,26,02,21,9.70
2013,09,26,02,22,9.60
2013,09,26,02,23,9.60
2013,09,26,02,24,9.60
2013,09,26,02,25,9.60
2013,09,26,02,26,9.50
2013,09,26,02,27,9.40
2013,09,26,02,28,9.40
2013,09,26,02,29,9.30
2013,09,26,02,30,9.20
2013,09,26,02,31,9.10
2013,09,26,02,32,9.00
2013,09,26,02,33,8.90
2013,09,26,02,34,8.90
2013,09,26,02,35,8.80
2013,09,26,02,36,8.80
2013,09,26,02,37,8.90
2013,09,26,02,38,9.00
2013,09,26,02,39,9.10
2013,09,26,02,40,9.20
2013,09,26,02,41,9.30
2013,09,26,02,42,9.50
2013,09,26,02,43,9.60
2013,09,26,02,44,9.70
2013,09,26,02,45,9.80
2013,09,26,02,46,9.80
2013,09,26,02,47,9.90
2013,09,26,02,48,9.90
2013,09,26,02,49,9.90
2013,09,26,02,50,9.90
2013,09,26,02,51,9.90
2013,09,26,02,52,9.90
2013,09,26,02,53,9.90
2013,09,26,02,54,9.90
2013,09,26,02,55,9.80
2013,09,26,02,56,9.70
2013,09,26,02,57,9.60
2013,09,26,02,58,9.60
2013,09,26,02,59,9.50
2013,09,26,03,00,9.40
2013,09,26,03,01,9.30
2013,09,26,03,02,9.20
2013,09,26,03,03,9.20
2013,09,26,03,04,9.20
2013,09,26,03,05,9.20
2013,09,26,03,06,9.30
2013,09,26,03,07,9.30
2013,09,26,03,08,9.40
2013,09,26,03,09,9.50
2013,09,26,03,10,9.60
2013,09,26,03,11,9.70
2013,09,26,03,12,9.70
2013,09,26,03,13,9.80
2013,09,26,03,14,9.80
2013,09,26,03,15,9.80
2013,09,26,03,16,9.80
2013,09,26,03,17,9.80
2013,09,26,03,18,9.80
2013,09,26,03,19,9.80
2013,09,26,03,20,9.80
2013,09,26,03,21,9.80
2013,09,26,03,22,9.80
2013,09,26,03,23,9.80
2013,09,26,03,24,9.80
2013,09,26,03,25,9.80
2013,09,26,03,26,9.80
2013,09,26,03,27,9.90
2013,09,26,03,28,9.80
2013,09,26,03,29,9.80
2013,09,26,03,30,9.80
2013,09,26,03,31,9.80
2013,09,26,03,32,9.80
2013,09,26,03,33,9.80
2013,09,26,03,34,9.70
2013,09,26,03,35,9.70
2013,09,26,03,36,9.70
2013,09,26,03,37,9.70
2013,09,26,03,38,9.70
2013,09,26,03,39,9.70
2013,09,26,03,40,9.70
2013,09,26,03,41,9.70
2013,09,26,03,42,9.80
2013,09,26,03,43,9.80
2013,09,26,03,44,9.90
2013,09,26,03,45,9.90
2013,09,26,03,46,9.90
2013,09,26,03,47,9.90
2013,09,26,03,48,9.90
2013,09,26,03,49,9.90
2013,09,26,03,50,9.90
2013,09,26,03,51,9.80
2013,09,26,03,52,9.80
2013,09,26,03,53,9.80
2013,09,26,03,54,9.70
2013,09,26,03,55,9.70
2013,09,26,03,56,9.70
2013,09,26,03,57,9.70
2013,09,26,03,58,9.70
2013,09,26,03,59,9.70
2013,09,26,04,00,9.70
2013,09,26,04,01,9.70
2013,09,26,04,02,9.60
2013,09,26,04,03,9.60
2013,09,26,04,04,9.50
2013,09,26,04,05,9.40
2013,09,26,04,06,9.30
2013,09,26,04,07,9.30
2013,09,26,04,08,9.20
2013,09,26,04,09,9.20
2013,09,26,04,10,9.20
2013,09,26,04,11,9.20
2013,09,26,04,12,9.20
2013,09,26,04,13,9.30
2013,09,26,04,14,9.30
2013,09,26,04,15,9.30
2013,09,26,04,16,9.40
2013,09,26,04,17,9.40
2013,09,26,04,18,9.40
2013,09,26,04,19,9.40
2013,09,26,04,20,9.40
2013,09,26,04,21,9.50
2013,09,26,04,22,9.50
2013,09,26,04,23,9.50
2013,09,26,04,24,9.60
2013,09,26,04,25,9.60
2013,09,26,04,26,9.60
2013,09,26,04,27,9.60
2013,09,26,04,28,9.60
2013,09,26,04,29,9.70
2013,09,26,04,30,9.70
2013,09,26,04,31,9.70
2013,09,26,04,32,9.70
2013,09,26,04,33,9.60
2013,09,26,04,34,9.60
2013,09,26,04,35,9.60
2013,09,26,04,36,9.50
2013,09,26,04,37,9.40
2013,09,26,04,38,9.40
2013,09,26,04,39,9.30
2013,09,26,04,40,9.20
2013,09,26,04,41,9.20
2013,09,26,04,42,9.20
2013,09,26,04,43,9.10
2013,09,26,04,44,9.10
2013,09,26,04,45,9.10
2013,09,26,04,46,9.00
2013,09,26,04,47,9.00
2013,09,26,04,48,9.00
2013,09,26,04,49,9.00
2013,09,26,04,50,9.10
2013,09,26,04,51,9.10
2013,09,26,04,52,9.10
2013,09,26,04,53,9.10
2013,09,26,04,54,9.10
2013,09,26,04,55,9.20
2013,09,26,04,56,9.20
2013,09,26,04,57,9.20
2013,09,26,04,58,9.20
2013,09,26,04,59,9.20
2013,09,26,05,00,9.10
2013,09,26,05,01,9.10
2013,09,26,05,02,9.10
2013,09,26,05,03,9.20
2013,09,26,05,04,9.20
2013,09,26,05,05,9.20
2013,09,26,05,06,9.20
2013,09,26,05,07,9.20
2013,09,26,05,08,9.20
2013,09,26,05,09,9.20
2013,09,26,05,10,9.10
2013,09,26,05,11,9.10
2013,09,26,05,12,9.10
2013,09,26,05,13,9.10
2013,09,26,05,14,9.00
2013,09,26,05,15,8.90
2013,09,26,05,16,8.90
2013,09,26,05,17,8.80
2013,09,26,05,18,8.70
2013,09,26,05,19,8.60
2013,09,26,05,20,8.60
2013,09,26,05,21,8.50
2013,09,26,05,22,8.40
2013,09,26,05,23,8.30
2013,09,26,05,24,8.30
2013,09,26,05,25,8.30
2013,09,26,05,26,8.20
2013,09,26,05,27,8.20
2013,09,26,05,28,8.10
2013,09,26,05,29,8.10
2013,09,26,05,30,8.10
2013,09,26,05,31,8.10
2013,09,26,05,32,8.10
2013,09,26,05,33,8.10
2013,09,26,05,34,8.10
2013,09,26,05,35,8.10
2013,09,26,05,36,8.10
2013,09,26,05,37,8.10
2013,09,26,05,38,8.10
2013,09,26,05,39,8.10
2013,09,26,05,40,8.10
2013,09,26,05,41,8.10
2013,09,26,05,42,8.10
2013,09,26,05,43,8.10
2013,09,26,05,44,8.10
2013,09,26,05,45,8.10
2013,09,26,05,46,8.10
2013,09,26,05,47,8.00
2013,09,26,05,48,8.00
2013,09,26,05,49,8.00
2013,09,26,05,50,8.10
2013,09,26,05,51,8.10
2013,09,26,05,52,8.10
2013,09,26,05,53,8.20
2013,09,26,05,54,8.30
2013,09,26,05,55,8.30
2013,09,26,05,56,8.40
2013,09,26,05,57,8.40
2013,09,26,05,58,8.40
2013,09,26,05,59,8.40
2013,09,26,06,00,8.40
2013,09,26,06,01,8.50
2013,09,26,06,02,8.40
2013,09,26,06,03,8.40
2013,09,26,06,04,8.50
2013,09,26,06,05,8.50
2013,09,26,06,06,8.50
2013,09,26,06,07,8.50
2013,09,26,06,08,8.50
2013,09,26,06,09,8.60
2013,09,26,06,10,8.60
2013,09,26,06,11,8.60
2013,09,26,06,12,8.70
2013,09,26,06,13,8.70
2013,09,26,06,14,8.70
2013,09,26,06,15,8.70
2013,09,26,06,16,8.80
2013,09,26,06,17,8.80
2013,09,26,06,18,8.80
2013,09,26,06,19,8.80
2013,09,26,06,20,8.80
2013,09,26,06,21,8.80
2013,09,26,06,22,8.80
2013,09,26,06,23,8.80
2013,09,26,06,24,8.80
2013,09,26,06,25,8.80
2013,09,26,06,26,8.80
2013,09,26,06,27,8.70
2013,09,26,06,28,8.70
2013,09,26,06,29,8.70
2013,09,26,06,30,8.70
2013,09,26,06,31,8.70
2013,09,26,06,32,8.70
2013,09,26,06,33,8.70
2013,09,26,06,34,8.70
2013,09,26,06,35,8.80
2013,09,26,06,36,8.80
2013,09,26,06,37,8.80
2013,09,26,06,38,8.80
2013,09,26,06,39,8.80
2013,09,26,06,40,8.70
2013,09,26,06,41,8.70
2013,09,26,06,42,8.70
2013,09,26,06,43,8.70
2013,09,26,06,44,8.70
2013,09,26,06,45,8.70
2013,09,26,06,46,8.80
2013,09,26,06,47,8.80
2013,09,26,06,48,8.70
2013,09,26,06,49,8.70
2013,09,26,06,50,8.70
2013,09,26,06,51,8.60
2013,09,26,06,52,8.60
2013,09,26,06,53,8.50
2013,09,26,06,54,8.40
2013,09,26,06,55,8.40
2013,09,26,06,56,8.30
2013,09,26,06,57,8.30
2013,09,26,06,58,8.30
2013,09,26,06,59,8.30
2013,09,26,07,00,8.30
2013,09,26,07,01,8.30
2013,09,26,07,02,8.30
2013,09,26,07,03,8.30
2013,09,26,07,04,8.30
2013,09,26,07,05,8.30
2013,09,26,07,06,8.30
2013,09,26,07,07,8.30
2013,09,26,07,08,8.30
2013,09,26,07,09,8.30
2013,09,26,07,10,8.30
2013,09,26,07,11,8.30
2013,09,26,07,12,8.30
2013,09,26,07,13,8.30
2013,09,26,07,14,8.30
2013,09,26,07,15,8.30
2013,09,26,07,16,8.40
2013,09,26,07,17,8.40
2013,09,26,07,18,8.50
2013,09,26,07,19,8.50
2013,09,26,07,20,8.60
2013,09,26,07,21,8.60
2013,09,26,07,22,8.60
2013,09,26,07,23,8.70
2013,09,26,07,24,8.70
2013,09,26,07,25,8.70
2013,09,26,07,26,8.80
2013,09,26,07,27,8.80
2013,09,26,07,28,8.80
2013,09,26,07,29,8.80
2013,09,26,07,30,8.90
2013,09,26,07,31,8.90
2013,09,26,07,32,8.90
2013,09,26,07,33,8.90
2013,09,26,07,34,8.90
2013,09,26,07,35,8.90
2013,09,26,07,36,9.00
2013,09,26,07,37,9.00
2013,09,26,07,38,9.00
2013,09,26,07,39,9.10
2013,09,26,07,40,9.10
2013,09,26,07,41,9.10
2013,09,26,07,42,9.10
2013,09,26,07,43,9.10
2013,09,26,07,44,9.10
2013,09,26,07,45,9.10
2013,09,26,07,46,9.10
2013,09,26,07,47,9.10
2013,09,26,07,48,9.10
2013,09,26,07,49,9.10
2013,09,26,07,50,9.10
2013,09,26,07,51,9.10
2013,09,26,07,52,9.10
2013,09,26,07,53,9.10
2013,09,26,07,54,9.10
2013,09,26,07,55,9.20
2013,09,26,07,56,9.20
2013,09,26,07,57,9.20
2013,09,26,07,58,9.20
2013,09,26,07,59,9.20
2013,09,26,08,00,9.20
2013,09,26,08,01,9.20
2013,09,26,08,02,9.30
2013,09,26,08,03,9.30
2013,09,26,08,04,9.30
2013,09,26,08,05,9.30
2013,09,26,08,06,9.30
2013,09,26,08,07,9.30
2013,09,26,08,08,9.40
2013,09,26,08,09,9.40
2013,09,26,08,10,9.40
2013,09,26,08,11,9.40
2013,09,26,08,12,9.50
2013,09,26,08,13,9.50
2013,09,26,08,14,9.60
2013,09,26,08,15,9.60
2013,09,26,08,16,9.70
2013,09,26,08,17,9.70
2013,09,26,08,18,9.80
2013,09,26,08,19,9.80
2013,09,26,08,20,9.90
2013,09,26,08,21,9.90
2013,09,26,08,22,10.00
2013,09,26,08,23,10.00
2013,09,26,08,24,10.10
2013,09,26,08,25,10.10
2013,09,26,08,26,10.20
2013,09,26,08,27,10.20
2013,09,26,08,28,10.20
2013,09,26,08,29,10.30
2013,09,26,08,30,10.30
2013,09,26,08,31,10.30
2013,09,26,08,32,10.40
2013,09,26,08,33,10.40
2013,09,26,08,34,10.40
2013,09,26,08,35,10.50
2013,09,26,08,36,10.50
2013,09,26,08,37,10.50
2013,09,26,08,38,10.60
2013,09,26,08,39,10.60
2013,09,26,08,40,10.60
2013,09,26,08,41,10.60
2013,09,26,08,42,10.60
2013,09,26,08,43,10.70
2013,09,26,08,44,10.70
2013,09,26,08,45,10.70
2013,09,26,08,46,10.70
2013,09,26,08,47,10.70
2013,09,26,08,48,10.70
2013,09,26,08,49,10.70
2013,09,26,08,50,10.70
2013,09,26,08,51,10.70
2013,09,26,08,52,10.70
2013,09,26,08,53,10.70
2013,09,26,08,54,10.70
2013,09,26,08,55,10.80
2013,09,26,08,56,10.80
2013,09,26,08,57,10.80
2013,09,26,08,58,10.80
2013,09,26,08,59,10.80
2013,09,26,09,00,10.80
2013,09,26,09,01,10.80
2013,09,26,09,02,10.80
2013,09,26,09,03,10.90
2013,09,26,09,04,10.90
2013,09,26,09,05,11.00
2013,09,26,09,06,11.00
2013,09,26,09,07,11.10
2013,09,26,09,08,11.10
2013,09,26,09,09,11.20
2013,09,26,09,10,11.30
2013,09,26,09,11,11.30
2013,09,26,09,12,11.40
2013,09,26,09,13,11.40
2013,09,26,09,14,11.50
2013,09,26,09,15,11.50
2013,09,26,09,16,11.60
2013,09,26,09,17,11.60
2013,09,26,09,18,11.60
2013,09,26,09,19,11.70
2013,09,26,09,20,11.70
2013,09,26,09,21,11.80
2013,09,26,09,22,11.80
2013,09,26,09,23,11.80
2013,09,26,09,24,11.80
2013,09,26,09,25,11.90
2013,09,26,09,26,11.90
2013,09,26,09,27,11.90
2013,09,26,09,28,11.90
2013,09,26,09,29,12.00
2013,09,26,09,30,12.00
2013,09,26,09,31,12.00
2013,09,26,09,32,12.10
2013,09,26,09,33,12.10
2013,09,26,09,34,12.10
2013,09,26,09,35,12.10
2013,09,26,09,36,12.20
2013,09,26,09,37,12.20
2013,09,26,09,38,12.20
2013,09,26,09,39,12.20
2013,09,26,09,40,12.20
2013,09,26,09,41,12.20
2013,09,26,09,42,12.20
2013,09,26,09,43,12.30
2013,09,26,09,44,12.30
2013,09,26,09,45,12.30
2013,09,26,09,46,12.30
2013,09,26,09,47,12.30
2013,09,26,09,48,12.40
2013,09,26,09,49,12.40
2013,09,26,09,50,12.40
2013,09,26,09,51,12.40
2013,09,26,09,52,12.40
2013,09,26,09,53,12.40
2013,09,26,09,54,12.40
2013,09,26,09,55,12.40
2013,09,26,09,56,12.40
2013,09,26,09,57,12.40
2013,09,26,09,58,12.40
2013,09,26,09,59,12.40
2013,09,26,10,00,12.40
2013,09,26,10,01,12.50
2013,09,26,10,02,12.50
2013,09,26,10,03,12.50
2013,09,26,10,04,12.60
2013,09,26,10,05,12.60
2013,09,26,10,06,12.60
2013,09,26,10,07,12.70
2013,09,26,10,08,12.70
2013,09,26,10,09,12.70
2013,09,26,10,10,12.70
2013,09,26,10,11,12.80
2013,09,26,10,12,12.80
2013,09,26,10,13,12.80
2013,09,26,10,14,12.80
2013,09,26,10,15,12.80
2013,09,26,10,16,12.90
2013,09,26,10,17,12.90
2013,09,26,10,18,12.90
2013,09,26,10,19,12.90
2013,09,26,10,20,13.00
2013,09,26,10,21,13.00
2013,09,26,10,22,13.00
2013,09,26,10,23,13.10
2013,09,26,10,24,13.10
2013,09,26,10,25,13.10
2013,09,26,10,26,13.10
2013,09,26,10,27,13.20
2013,09,26,10,28,13.20
2013,09,26,10,29,13.20
2013,09,26,10,30,13.20
2013,09,26,10,31,13.30
2013,09,26,10,32,13.30
2013,09,26,10,33,13.30
2013,09,26,10,34,13.30
2013,09,26,10,35,13.20
2013,09,26,10,36,13.20
2013,09,26,10,37,13.30
2013,09,26,10,38,13.30
2013,09,26,10,39,13.30
2013,09,26,10,40,13.20
2013,09,26,10,41,13.20
2013,09,26,10,42,13.20
2013,09,26,10,43,13.20
2013,09,26,10,44,13.10
2013,09,26,10,45,13.10
2013,09,26,10,46,13.10
2013,09,26,10,47,13.10
2013,09,26,10,48,13.10
2013,09,26,10,49,13.10
2013,09,26,10,50,13.10
2013,09,26,10,51,13.20
2013,09,26,10,52,13.20
2013,09,26,10,53,13.20
2013,09,26,10,54,13.10
2013,09,26,10,55,13.10
2013,09,26,10,56,13.10
2013,09,26,10,57,13.10
2013,09,26,10,58,13.10
2013,09,26,10,59,13.10
2013,09,26,11,00,13.20
2013,09,26,11,01,13.20
2013,09,26,11,02,13.20
2013,09,26,11,03,13.20
2013,09,26,11,04,13.20
2013,09,26,11,05,13.30
2013,09,26,11,06,13.30
2013,09,26,11,07,13.30
2013,09,26,11,08,13.30
2013,09,26,11,09,13.30
2013,09,26,11,10,13.30
2013,09,26,11,11,13.40
2013,09,26,11,12,13.40
2013,09,26,11,13,13.40
2013,09,26,11,14,13.50
2013,09,26,11,15,13.50
2013,09,26,11,16,13.50
2013,09,26,11,17,13.50
2013,09,26,11,18,13.40
2013,09,26,11,19,13.40
2013,09,26,11,20,13.40
2013,09,26,11,21,13.30
2013,09,26,11,22,13.30
2013,09,26,11,23,13.20
2013,09,26,11,24,13.20
2013,09,26,11,25,13.20
2013,09,26,11,26,13.20
2013,09,26,11,27,13.20
2013,09,26,11,28,13.20
2013,09,26,11,29,13.20
2013,09,26,11,30,13.20
2013,09,26,11,31,13.20
2013,09,26,11,32,13.20
2013,09,26,11,33,13.20
2013,09,26,11,34,13.20
2013,09,26,11,35,13.20
2013,09,26,11,36,13.20
2013,09,26,11,37,13.20
2013,09,26,11,38,13.20
2013,09,26,11,39,13.20
2013,09,26,11,40,13.20
2013,09,26,11,41,13.20
2013,09,26,11,42,13.20
2013,09,26,11,43,13.30
2013,09,26,11,44,13.30
2013,09,26,11,45,13.30
2013,09,26,11,46,13.40
2013,09,26,11,47,13.40
2013,09,26,11,48,13.50
2013,09,26,11,49,13.50
2013,09,26,11,50,13.60
2013,09,26,11,51,13.60
2013,09,26,11,52,13.70
2013,09,26,11,53,13.80
2013,09,26,11,54,13.80
2013,09,26,11,55,13.90
2013,09,26,11,56,13.90
2013,09,26,11,57,13.90
2013,09,26,11,58,13.90
2013,09,26,11,59,13.90
2013,09,26,12,00,13.90
2013,09,26,12,01,13.90
2013,09,26,12,02,13.90
2013,09,26,12,03,13.90
2013,09,26,12,04,13.90
2013,09,26,12,05,13.80
2013,09,26,12,06,13.80
2013,09,26,12,07,13.70
2013,09,26,12,08,13.70
2013,09,26,12,09,13.70
2013,09,26,12,10,13.70
2013,09,26,12,11,13.70
2013,09,26,12,12,13.70
2013,09,26,12,13,13.70
2013,09,26,12,14,13.80
2013,09,26,12,15,13.80
2013,09,26,12,16,13.80
2013,09,26,12,17,13.80
2013,09,26,12,18,13.70
2013,09,26,12,19,13.70
2013,09,26,12,20,13.70
2013,09,26,12,21,13.80
2013,09,26,12,22,13.80
2013,09,26,12,23,13.80
2013,09,26,12,24,13.80
2013,09,26,12,25,13.80
2013,09,26,12,26,13.80
2013,09,26,12,27,13.80
2013,09,26,12,28,13.80
2013,09,26,12,29,13.80
2013,09,26,12,30,13.80
2013,09,26,12,31,13.80
2013,09,26,12,32,13.80
2013,09,26,12,33,13.90
2013,09,26,12,34,13.80
2013,09,26,12,35,13.90
2013,09,26,12,36,13.90
2013,09,26,12,37,13.80
2013,09,26,12,38,13.80
2013,09,26,12,39,13.80
2013,09,26,12,40,13.80
2013,09,26,12,41,13.80
2013,09,26,12,42,13.80
2013,09,26,12,43,13.80
2013,09,26,12,44,13.80
2013,09,26,12,45,13.80
2013,09,26,12,46,13.80
2013,09,26,12,47,13.80
2013,09,26,12,48,13.70
2013,09,26,12,49,13.70
2013,09,26,12,50,13.70
2013,09,26,12,51,13.70
2013,09,26,12,52,13.70
2013,09,26,12,53,13.80
2013,09,26,12,54,13.80
2013,09,26,12,55,13.80
2013,09,26,12,56,13.80
2013,09,26,12,57,13.80
2013,09,26,12,58,13.80
2013,09,26,12,59,13.80
2013,09,26,13,00,13.80
2013,09,26,13,01,13.80
2013,09,26,13,02,13.80
2013,09,26,13,03,13.80
2013,09,26,13,04,13.90
2013,09,26,13,05,13.90
2013,09,26,13,06,13.90
2013,09,26,13,07,13.80
2013,09,26,13,08,13.80
2013,09,26,13,09,13.80
2013,09,26,13,10,13.70
2013,09,26,13,11,13.70
2013,09,26,13,12,13.60
2013,09,26,13,13,13.60
2013,09,26,13,14,13.60
2013,09,26,13,15,13.60
2013,09,26,13,16,13.50
2013,09,26,13,17,13.50
2013,09,26,13,18,13.50
2013,09,26,13,19,13.50
2013,09,26,13,20,13.50
2013,09,26,13,21,13.50
2013,09,26,13,22,13.50
2013,09,26,13,23,13.60
2013,09,26,13,24,13.60
2013,09,26,13,25,13.60
2013,09,26,13,26,13.60
2013,09,26,13,27,13.70
2013,09,26,13,28,13.70
2013,09,26,13,29,13.70
2013,09,26,13,30,13.70
2013,09,26,13,31,13.70
2013,09,26,13,32,13.70
2013,09,26,13,33,13.70
2013,09,26,13,34,13.70
2013,09,26,13,35,13.70
2013,09,26,13,36,13.70
2013,09,26,13,37,13.70
2013,09,26,13,38,13.60
2013,09,26,13,39,13.60
2013,09,26,13,40,13.70
2013,09,26,13,41,13.70
2013,09,26,13,42,13.80
2013,09,26,13,43,13.80
2013,09,26,13,44,13.80
2013,09,26,13,45,13.80
2013,09,26,13,46,13.90
2013,09,26,13,47,13.90
2013,09,26,13,48,13.90
2013,09,26,13,49,13.90
2013,09,26,13,50,13.80
2013,09,26,13,51,13.80
2013,09,26,13,52,13.80
2013,09,26,13,53,13.80
2013,09,26,13,54,13.80
2013,09,26,13,55,13.80
2013,09,26,13,56,13.80
2013,09,26,13,57,13.80
2013,09,26,13,58,13.80
2013,09,26,13,59,13.80
2013,09,26,14,00,13.80
2013,09,26,14,01,13.80
2013,09,26,14,02,13.90
2013,09,26,14,03,14.00
2013,09,26,14,04,14.00
2013,09,26,14,05,14.10
2013,09,26,14,06,14.10
2013,09,26,14,07,14.10
2013,09,26,14,08,14.20
2013,09,26,14,09,14.20
2013,09,26,14,10,14.20
2013,09,26,14,11,14.20
2013,09,26,14,12,14.20
2013,09,26,14,13,14.20
2013,09,26,14,14,14.30
2013,09,26,14,15,14.30
2013,09,26,14,16,14.30
2013,09,26,14,17,14.30
2013,09,26,14,18,14.30
2013,09,26,14,19,14.30
2013,09,26,14,20,14.30
2013,09,26,14,21,14.30
2013,09,26,14,22,14.30
2013,09,26,14,23,14.40
2013,09,26,14,24,14.40
2013,09,26,14,25,14.50
2013,09,26,14,26,14.50
2013,09,26,14,27,14.60
2013,09,26,14,28,14.60
2013,09,26,14,29,14.60
2013,09,26,14,30,14.60
2013,09,26,14,31,14.60
2013,09,26,14,32,14.60
2013,09,26,14,33,14.70
2013,09,26,14,34,14.70
2013,09,26,14,35,14.60
2013,09,26,14,36,14.60
2013,09,26,14,37,14.60
2013,09,26,14,38,14.70
2013,09,26,14,39,14.70
2013,09,26,14,40,14.70
2013,09,26,14,41,14.70
2013,09,26,14,42,14.80
2013,09,26,14,43,14.80
2013,09,26,14,44,14.90
2013,09,26,14,45,14.90
2013,09,26,14,46,15.00
2013,09,26,14,47,15.00
2013,09,26,14,48,15.00
2013,09,26,14,49,15.00
2013,09,26,14,50,15.00
2013,09,26,14,51,15.00
2013,09,26,14,52,15.00
2013,09,26,14,53,15.00
2013,09,26,14,54,15.00
2013,09,26,14,55,15.00
2013,09,26,14,56,15.00
2013,09,26,14,57,15.00
2013,09,26,14,58,15.00
2013,09,26,14,59,15.00
2013,09,26,15,00,15.00
2013,09,26,15,01,15.00
2013,09,26,15,02,14.90
2013,09,26,15,03,15.00
2013,09,26,15,04,15.00
2013,09,26,15,05,15.00
2013,09,26,15,06,15.00
2013,09,26,15,07,15.00
2013,09,26,15,08,15.00
2013,09,26,15,09,14.90
2013,09,26,15,10,14.90
2013,09,26,15,11,14.90
2013,09,26,15,12,14.90
2013,09,26,15,13,14.80
2013,09,26,15,14,14.80
2013,09,26,15,15,14.80
2013,09,26,15,16,14.70
2013,09,26,15,17,14.70
2013,09,26,15,18,14.70
2013,09,26,15,19,14.70
2013,09,26,15,20,14.70
2013,09,26,15,21,14.70
2013,09,26,15,22,14.80
2013,09,26,15,23,14.80
2013,09,26,15,24,14.80
2013,09,26,15,25,14.80
2013,09,26,15,26,14.80
2013,09,26,15,27,14.90
2013,09,26,15,28,15.00
2013,09,26,15,29,15.00
2013,09,26,15,30,15.00
2013,09,26,15,31,15.00
2013,09,26,15,32,15.00
2013,09,26,15,33,15.00
2013,09,26,15,34,15.00
2013,09,26,15,35,15.10
2013,09,26,15,36,15.10
2013,09,26,15,37,15.20
2013,09,26,15,38,15.30
2013,09,26,15,39,15.30
2013,09,26,15,40,15.40
2013,09,26,15,41,15.50
2013,09,26,15,42,15.50
2013,09,26,15,43,15.60
2013,09,26,15,44,15.60
2013,09,26,15,45,15.70
2013,09,26,15,46,15.80
2013,09,26,15,47,15.80
2013,09,26,15,48,15.90
2013,09,26,15,49,15.90
2013,09,26,15,50,15.90
2013,09,26,15,51,15.90
2013,09,26,15,52,16.00
2013,09,26,15,53,16.00
2013,09,26,15,54,16.10
2013,09,26,15,55,16.10
2013,09,26,15,56,16.10
2013,09,26,15,57,16.10
2013,09,26,15,58,16.10
2013,09,26,15,59,16.20
2013,09,26,16,00,16.20
2013,09,26,16,01,16.20
2013,09,26,16,02,16.30
2013,09,26,16,03,16.30
2013,09,26,16,04,16.30
2013,09,26,16,05,16.30
2013,09,26,16,06,16.30
2013,09,26,16,07,16.30
2013,09,26,16,08,16.30
2013,09,26,16,09,16.30
2013,09,26,16,10,16.20
2013,09,26,16,11,16.20
2013,09,26,16,12,16.20
2013,09,26,16,13,16.20
2013,09,26,16,14,16.20
2013,09,26,16,15,16.20
2013,09,26,16,16,16.20
2013,09,26,16,17,16.20
2013,09,26,16,18,16.20
2013,09,26,16,19,16.20
2013,09,26,16,20,16.20
2013,09,26,16,21,16.20
2013,09,26,16,22,16.10
2013,09,26,16,23,16.10
2013,09,26,16,24,16.10
2013,09,26,16,25,16.10
2013,09,26,16,26,16.10
2013,09,26,16,27,16.10
2013,09,26,16,28,16.10
2013,09,26,16,29,16.10
2013,09,26,16,30,16.10
2013,09,26,16,31,16.10
2013,09,26,16,32,16.20
2013,09,26,16,33,16.20
2013,09,26,16,34,16.20
2013,09,26,16,35,16.10
2013,09,26,16,36,16.10
2013,09,26,16,37,16.10
2013,09,26,16,38,16.10
2013,09,26,16,39,16.10
2013,09,26,16,40,16.10
2013,09,26,16,41,16.10
2013,09,26,16,42,16.10
2013,09,26,16,43,16.10
2013,09,26,16,44,16.10
2013,09,26,16,45,16.10
2013,09,26,16,46,16.20
2013,09,26,16,47,16.20
2013,09,26,16,48,16.20
2013,09,26,16,49,16.20
2013,09,26,16,50,16.20
2013,09,26,16,51,16.30
2013,09,26,16,52,16.30
2013,09,26,16,53,16.30
2013,09,26,16,54,16.30
2013,09,26,16,55,16.30
2013,09,26,16,56,16.40
2013,09,26,16,57,16.40
2013,09,26,16,58,16.40
2013,09,26,16,59,16.40
2013,09,26,17,00,16.40
2013,09,26,17,01,16.40
2013,09,26,17,02,16.40
2013,09,26,17,03,16.40
2013,09,26,17,04,16.40
2013,09,26,17,05,16.40
2013,09,26,17,06,16.40
2013,09,26,17,07,16.50
2013,09,26,17,08,16.50
2013,09,26,17,09,16.50
2013,09,26,17,10,16.50
2013,09,26,17,11,16.50
2013,09,26,17,12,16.60
2013,09,26,17,13,16.60
2013,09,26,17,14,16.60
2013,09,26,17,15,16.60
2013,09,26,17,16,16.60
2013,09,26,17,17,16.60
2013,09,26,17,18,16.60
2013,09,26,17,19,16.60
2013,09,26,17,20,16.60
2013,09,26,17,21,16.50
2013,09,26,17,22,16.50
2013,09,26,17,23,16.50
2013,09,26,17,24,16.50
2013,09,26,17,25,16.50
2013,09,26,17,26,16.50
2013,09,26,17,27,16.50
2013,09,26,17,28,16.40
2013,09,26,17,29,16.50
2013,09,26,17,30,16.40
2013,09,26,17,31,16.40
2013,09,26,17,32,16.40
2013,09,26,17,33,16.40
2013,09,26,17,34,16.40
2013,09,26,17,35,16.40
2013,09,26,17,36,16.40
2013,09,26,17,37,16.40
2013,09,26,17,38,16.40